Location: Braden Valley Church
(38.0012°N, 88.6106°W)
Time: 03:35:48
(UTC+00:00)

Cosmos 2278 - Pass Details

Date: 08 December 2021
Orbit: 839 x 853 km, 71.1° (Epoch: 21 January)

Event Time Altitude Azimuth Distance (km) Brightness Sun altitude
Rises 23:04:26 0° 342° (NNW) 3,425 6.8 -6.1°
Reaches altitude 10° 23:06:58 10° 347° (NNW) 2,484 6.0 -6.5°
Maximum altitude 23:12:32 53° 64° (ENE) 1,036 3.8 -7.5°
Drops below altitude 10° 23:18:03 10° 141° (SE) 2,462 6.0 -8.5°
Sets 23:20:33 0° 146° (SE) 3,391 6.7 -9.0°
